Temperature
21 21 21 20 21 22 23 23 24 23 24 24 24 23 22 21 20 18 17 18 17 17 17 17 17 17 17 17 17 17 17 17 17 17 17 17 17 17 17 17 17 17 17 17 17 17 17 17 18
21 21 21 21 21 22 22 23 23 23 24 24 24 23 22 20 19 18 17 18 17 17 17 17 17 17 17 17 17 17 17 17 17 17 17 16 16 16 16 16 17 16 17 17 17 17 17 17 17
21 21 22 22 23 23 22 23 23 24 24 24 23 22 21 20 19 18 18 18 17 17 17 17 17 17 17 17 17 17 17 17 17 16 16 16 16 16 16 16 16 16 16 16 17 17 17 17 17
21 22 23 23 23 23 23 23 24 24 24 23 23 21 19 19 18 18 18 18 17 17 17 17 17 17 17 17 17 16 16 16 16 16 16 16 16 16 16 16 16 16 16 16 16 16 16 17 17
22 23 23 23 23 23 24 24 24 24 24 23 22 20 18 18 18 18 18 18 17 17 17 17 17 17 17 17 16 16 16 16 16 16 16 16 16 16 16 16 16 16 16 16 16 16 16 17 17
23 24 23 23 23 23 24 24 24 24 23 23 21 20 18 18 18 18 18 18 18 17 17 17 17 17 17 17 17 16 16 16 16 16 16 16 16 16 16 16 16 16 16 16 16 16 16 17 17
23 23 23 23 23 23 24 24 24 23 23 22 22 20 18 18 18 18 18 18 18 18 17 17 17 17 17 17 17 17 16 16 16 16 16 16 16 16 16 16 16 16 16 16 16 16 17 17 17
23 23 24 23 23 23 23 23 23 23 22 22 22 20 18 18 18 18 18 18 18 18 18 18 17 17 17 17 17 17 17 16 16 16 16 16 16 16 16 16 16 16 16 16 16 16 17 17 17
23 23 23 23 23 23 23 23 23 22 22 21 21 20 19 18 18 18 18 18 18 18 18 18 18 17 17 17 17 17 17 17 16 16 16 16 16 16 16 16 16 16 16 16 16 16 17 17 17
24 22 23 24 24 23 23 23 23 22 22 21 20 19 18 18 18 18 18 18 18 18 19 18 18 18 18 17 17 17 17 17 17 17 16 16 16 16 16 16 16 16 16 16 16 16 17 17 17
24 23 23 24 24 24 23 23 23 23 22 21 20 19 19 19 19 19 19 19 19 19 19 19 19 18 18 17 17 17 17 17 17 17 17 17 17 16 16 16 16 16 16 16 16 17 17 17 17
24 24 23 23 23 23 23 23 23 22 21 21 20 19 19 19 20 20 20 19 19 19 19 19 19 19 18 18 17 17 17 17 17 17 17 17 17 17 17 16 16 16 16 16 16 17 17 17 17
23 23 23 23 23 23 23 23 22 21 21 20 20 20 20 20 20 20 20 19 19 19 19 19 19 18 18 18 18 17 17 17 17 17 17 17 17 17 17 16 16 16 16 16 16 16 16 16 16
23 23 23 23 23 23 23 22 22 21 21 20 20 20 20 20 20 20 20 20 19 19 19 19 19 18 18 18 18 17 17 17 17 17 17 17 17 17 17 16 16 16 16 16 16 16 16 16 16
22 22 22 23 23 23 23 22 22 21 21 21 20 20 20 20 20 20 20 20 20 19 19 18 18 18 18 18 17 17 17 17 17 17 17 17 17 17 16 16 16 16 16 16 16 16 16 16 16
23 22 21 22 23 23 22 21 22 21 21 21 21 20 20 20 21 21 20 20 20 19 19 18 18 18 17 17 17 17 17 17 17 16 16 17 17 17 16 16 16 16 16 16 16 16 16 16 16
22 22 21 21 23 23 22 21 21 21 21 21 21 20 20 21 21 21 20 20 20 19 19 18 18 18 17 17 17 17 17 17 16 16 16 16 16 16 16 16 16 16 16 16 16 16 16 16 16
22 22 22 22 22 23 22 21 21 21 21 21 21 21 21 21 21 21 20 20 20 19 19 18 18 18 17 17 17 17 17 17 16 16 16 16 16 16 16 16 16 16 16 16 16 16 15 15 16
23 22 22 22 23 22 22 21 21 21 21 21 21 21 21 21 21 21 20 20 20 19 19 18 18 18 17 17 17 17 17 16 16 16 16 16 16 16 16 16 16 16 16 16 16 16 15 15 15
23 22 22 22 23 23 22 22 22 22 22 22 22 22 22 22 21 21 20 20 20 20 19 19 18 18 18 17 17 17 17 16 16 16 16 16 16 16 16 16 16 16 16 16 16 15 15 15 15
23 22 22 22 23 23 22 21 22 22 22 22 22 22 22 22 21 21 20 20 20 20 19 19 19 18 18 17 17 17 17 17 16 16 16 16 16 16 16 16 16 16 15 15 15 15 15 15 15
22 23 23 23 22 22 22 21 22 22 22 22 22 22 22 22 22 21 21 20 20 20 19 19 19 18 18 18 17 17 17 17 16 16 16 16 16 16 16 16 16 16 15 15 15 15 15 15 15
22 23 23 23 22 22 23 22 22 23 22 22 23 23 22 22 22 21 21 20 20 20 19 19 19 18 18 18 18 17 17 17 17 16 16 16 16 16 16 16 16 15 15 15 15 15 15 15 15
23 23 23 23 22 21 23 22 22 23 23 23 23 23 23 23 22 22 21 21 20 20 19 19 19 18 18 18 18 17 17 17 17 16 16 16 16 16 16 16 16 15 15 15 15 15 15 15 15
23 22 21 20 20 21 23 23 23 24 25 25 24 24 23 23 22 22 21 21 20 20 19 19 19 19 18 18 18 18 17 17 17 17 17 16 16 16 16 16 16 15 15 15 15 15 15 14 15
23 22 21 20 21 22 24 23 24 26 26 25 25 24 23 23 23 22 21 21 20 20 19 19 19 19 18 18 18 18 17 17 17 17 17 17 16 16 16 16 16 15 15 15 15 15 14 14 14
23 23 23 23 23 22 23 24 25 26 25 25 25 24 24 23 23 22 22 21 20 20 19 19 19 19 18 18 18 18 18 17 17 17 17 17 16 16 16 16 16 15 15 15 15 15 14 14 14
24 23 23 22 21 21 23 23 23 24 25 25 25 24 24 23 23 22 22 21 20 20 19 19 19 19 19 18 18 18 18 18 17 17 17 17 17 16 16 16 16 15 15 15 15 14 14 14 14
24 24 24 23 23 22 21 22 25 25 25 25 25 24 24 23 23 22 22 21 20 20 19 19 19 19 19 18 18 18 18 18 17 17 17 17 17 16 16 16 16 15 15 15 14 14 14 14 14
25 25 23 22 22 23 22 22 26 25 26 26 25 24 24 23 23 22 21 21 20 20 19 19 19 19 19 19 18 18 18 18 17 17 17 17 16 16 16 16 16 15 15 15 14 14 14 14 13
Wind_Speed
8 9 6 2 2 2 2 5 7 6 7 8 10 11 13 13 9 9 3 5 11 12 13 14 14 14 15 14 14 14 14 14 14 13 13 13 12 12 12 12 12 12 11 11 11 11 10 10 9
9 5 4 3 3 1 4 6 10 9 8 7 10 13 13 11 11 8 4 7 11 13 14 14 14 14 15 15 14 14 14 14 13 13 12 12 12 11 11 11 11 11 11 11 10 10 10 10 9
11 6 4 3 2 2 5 8 10 9 8 7 8 11 8 7 9 6 6 9 13 14 15 14 15 15 15 15 14 14 14 13 13 13 12 12 11 11 11 11 10 10 10 10 10 10 9 9 8
5 4 4 2 3 7 8 9 9 9 7 8 10 10 8 8 6 8 9 11 13 13 15 13 14 15 15 14 13 13 13 12 12 12 12 11 11 11 11 10 10 10 10 9 9 9 9 9 8
4 4 3 1 5 8 8 7 7 8 7 10 12 11 9 10 11 11 10 11 12 13 14 14 14 14 14 13 12 12 12 11 11 11 10 10 10 11 10 10 10 10 9 9 9 9 9 8 8
3 4 3 2 6 8 6 5 7 10 11 11 12 11 8 8 10 9 9 9 10 12 13 14 14 14 13 12 11 11 10 10 9 8 8 7 8 9 9 9 9 9 9 8 8 8 7 7 6
4 4 3 3 5 6 5 4 6 8 10 8 9 9 8 9 8 8 9 8 8 10 11 13 14 13 13 12 10 9 8 7 6 5 4 4 6 7 8 9 9 8 8 7 6 6 6 5 4
3 3 2 3 5 5 6 5 6 8 8 7 7 8 9 10 9 8 8 7 7 7 6 8 11 13 13 12 9 8 7 5 4 3 2 2 3 5 8 8 7 6 6 5 4 3 2 2 1
4 4 2 2 5 5 7 7 6 7 9 8 9 12 14 14 11 9 7 6 5 6 5 6 7 9 11 12 10 9 7 4 4 4 4 3 3 5 7 7 5 4 3 1 0 1 2 2 3
3 2 1 3 5 7 8 9 7 7 10 12 14 15 15 12 11 10 8 8 7 6 6 6 5 6 7 8 7 5 5 3 2 3 3 2 4 5 6 7 4 3 2 2 4 5 5 6 4
1 1 3 6 8 8 8 7 6 9 9 12 15 15 13 12 10 9 8 8 7 6 6 6 6 6 7 5 6 5 4 3 5 5 6 6 5 3 5 5 5 4 4 3 3 4 4 2 1
1 4 5 7 7 7 7 6 6 7 9 12 14 14 12 11 9 8 9 8 7 7 5 5 6 6 7 6 4 4 4 5 5 7 7 6 3 3 3 3 2 2 2 2 3 2 4 5 5
3 5 7 7 6 6 8 8 8 10 12 13 13 12 10 10 9 7 8 9 9 7 5 6 5 7 7 4 3 6 5 4 5 6 7 6 3 2 3 3 4 4 4 3 3 4 5 5 6
5 7 7 7 6 6 8 8 7 10 12 13 12 10 8 7 8 7 7 9 9 7 7 6 5 5 5 4 3 4 5 5 6 6 6 6 5 4 3 3 3 4 4 4 3 4 3 3 3
8 8 6 5 6 6 7 6 8 12 12 12 11 10 9 7 7 7 7 8 8 8 8 6 5 5 6 5 5 5 5 6 6 7 9 7 6 7 6 3 3 4 6 7 6 5 4 3 3
6 5 4 3 4 5 5 6 9 11 12 10 9 9 7 6 7 6 7 7 8 8 8 6 5 7 6 5 4 4 6 6 6 8 9 10 10 10 7 3 3 6 7 5 3 4 4 4 4
5 5 6 5 4 4 4 6 9 10 11 10 9 9 8 6 6 6 6 7 7 8 9 6 5 6 5 4 4 5 6 5 7 8 8 10 11 11 7 4 4 7 5 3 4 5 4 3 3
6 6 6 6 6 5 5 7 9 9 9 9 9 9 9 9 8 7 7 6 6 8 9 8 6 6 4 2 4 4 4 3 6 6 7 9 10 11 8 5 7 7 4 4 4 4 3 3 3
4 5 5 5 7 5 6 8 9 9 8 9 10 10 10 9 8 8 7 7 6 7 8 8 7 6 4 2 3 3 2 2 3 4 7 7 8 8 6 5 5 5 4 4 5 4 3 3 3
5 6 5 6 7 5 5 7 8 10 10 10 10 10 10 10 9 9 8 7 7 7 7 7 7 6 6 3 2 3 3 3 3 4 5 7 8 9 6 5 3 3 4 5 5 4 3 3 3
5 6 6 6 5 5 5 5 8 10 10 10 10 9 10 11 11 11 10 8 7 7 7 7 7 7 7 5 3 3 3 2 3 3 2 3 6 6 7 6 4 3 4 3 3 4 4 3 3
3 4 5 6 5 4 6 4 7 11 11 11 10 9 9 10 11 10 10 9 9 8 7 7 7 7 7 6 4 4 3 3 3 3 2 3 4 4 5 5 5 4 4 3 3 4 3 3 3
2 4 4 6 4 4 6 3 5 11 11 12 12 11 10 10 10 11 10 10 9 8 7 6 7 7 7 6 4 1 2 3 3 3 3 3 3 3 3 4 4 4 3 4 4 4 4 3 3
4 4 4 4 3 5 6 4 4 8 12 13 13 13 11 10 10 10 10 9 8 8 7 6 7 6 6 6 6 4 3 3 4 3 2 2 3 2 2 2 2 3 3 3 3 2 3 3 4
5 3 2 3 4 4 7 5 4 7 10 12 12 13 12 11 10 10 10 10 9 9 8 7 7 7 7 6 6 6 5 5 4 3 3 2 2 2 2 2 2 2 2 3 3 3 3 2 3
5 5 3 2 2 3 5 3 3 6 6 8 10 11 11 11 10 10 11 10 10 10 9 9 8 8 8 7 6 6 6 4 3 3 3 3 2 3 3 3 3 2 2 2 2 1 2 2 2
4 5 5 4 2 2 4 4 5 6 6 7 9 10 11 11 10 11 11 11 10 10 9 9 9 8 8 7 6 5 5 4 4 4 3 3 3 3 4 3 3 3 2 2 2 1 2 3 3
6 5 4 2 1 1 3 4 4 7 8 8 8 8 9 10 10 10 10 10 10 9 9 9 8 8 7 7 6 5 4 5 4 3 3 3 3 4 4 3 3 3 3 2 2 1 2 2 1
6 5 3 2 2 1 0 1 3 6 6 7 8 8 8 9 9 9 9 9 9 9 8 8 8 7 7 7 6 6 5 4 4 3 3 3 2 4 4 3 2 2 3 3 2 1 1 1 1
5 3 1 1 3 1 0 1 4 5 4 5 6 7 8 8 8 9 9 9 8 9 9 8 8 7 6 6 5 5 6 5 5 4 4 4 4 4 4 3 2 2 2 2 3 1 0 1 1
Wind_Direction
266 234 223 227 250 231 72 75 92 86 72 57 58 71 69 53 60 93 125 101 99 98 96 90 88 87 85 83 83 81 79 77 74 74 72 70 68 68 67 66 63 63 61 57 53 48 47 47 47
270 244 238 236 254 183 81 85 84 78 89 85 68 72 74 68 76 96 110 98 97 94 89 89 90 88 85 83 82 81 79 76 73 72 72 70 67 67 66 65 63 61 59 56 51 48 48 47 46
261 251 251 249 295 65 95 94 98 92 84 82 80 64 59 70 78 97 118 108 96 93 90 89 91 89 85 82 81 81 79 76 73 71 69 67 66 65 66 64 61 60 59 56 52 51 49 47 45
258 242 240 251 49 64 97 112 116 109 87 81 89 76 65 61 90 117 120 108 103 100 96 92 92 91 87 84 80 80 78 74 71 69 67 66 66 65 64 60 58 59 58 55 52 51 50 48 46
244 255 250 166 82 81 87 101 107 98 89 82 86 91 86 79 98 107 106 106 106 106 106 105 101 97 92 87 82 80 77 75 71 68 66 65 65 63 62 60 59 59 58 56 54 53 50 49 46
260 257 254 166 108 99 93 91 98 97 97 97 99 102 93 100 99 101 100 99 105 112 115 117 114 108 99 91 84 80 77 74 71 70 69 68 71 71 68 62 59 61 58 56 55 54 51 50 45
271 280 262 142 121 115 113 104 96 102 97 91 103 104 111 109 105 101 94 93 100 112 125 134 133 123 111 101 94 90 87 85 85 85 85 90 94 89 81 70 62 61 59 55 55 57 54 53 46
287 285 254 146 133 112 115 106 88 94 91 96 107 113 125 129 122 110 104 106 111 119 123 129 133 136 132 123 118 121 118 121 127 139 157 155 148 123 97 84 75 66 62 59 56 54 50 47 22
274 261 256 123 130 122 131 114 93 95 99 84 77 100 124 132 132 125 123 121 117 124 134 130 129 129 131 131 138 155 152 161 186 207 223 215 170 141 113 99 106 92 78 68 3 297 272 254 248
245 287 354 81 112 131 136 124 130 122 109 103 100 109 127 139 141 142 142 136 135 135 126 125 127 121 106 101 122 131 117 130 122 68 72 68 79 84 103 132 146 165 195 247 258 262 257 246 230
276 55 63 80 106 128 129 128 136 131 124 127 128 131 139 143 146 144 137 124 119 116 110 118 112 107 109 100 101 92 92 72 48 41 64 47 41 83 118 157 178 204 208 252 270 270 271 230 131
104 90 90 100 111 124 127 133 120 108 113 126 131 138 144 150 147 146 133 123 120 107 102 101 108 103 91 89 101 89 69 64 45 22 48 52 25 37 55 65 44 68 66 355 338 347 25 26 34
118 102 100 105 113 116 114 112 109 110 116 123 134 144 150 149 144 136 129 127 117 118 111 85 78 89 93 86 80 85 62 57 70 21 39 47 28 38 52 62 31 37 34 25 17 27 41 27 24
116 112 113 115 112 112 115 117 120 126 130 133 141 147 145 142 140 139 138 133 135 132 116 105 96 92 105 103 87 82 96 75 57 17 37 50 42 47 47 60 40 36 35 30 37 40 39 42 40
132 126 117 126 133 137 129 125 135 142 142 145 151 150 148 153 152 152 141 137 132 129 121 108 103 85 72 67 64 77 69 74 58 25 16 33 45 50 43 35 38 23 30 37 36 41 25 44 44
164 160 148 152 156 158 160 142 142 153 153 155 154 148 149 160 164 147 134 130 125 123 114 109 105 96 82 72 58 69 62 57 60 43 20 19 37 58 47 25 29 35 34 31 35 42 31 35 38
201 177 157 160 177 174 176 147 155 166 162 160 156 154 162 175 167 147 144 141 133 129 125 126 111 104 103 112 99 72 74 56 61 52 29 19 25 44 53 22 25 39 35 22 33 35 30 30 33
183 168 165 162 174 179 163 149 158 171 169 169 165 168 175 177 172 153 144 136 138 138 132 125 115 118 126 117 96 81 65 64 68 65 43 28 27 31 36 35 36 37 38 26 34 36 25 20 14
189 166 159 151 153 168 168 166 169 177 179 179 179 183 183 178 166 152 150 146 153 147 137 135 142 141 128 103 103 111 103 88 71 70 51 40 38 26 34 41 44 38 46 37 39 31 19 24 16
162 160 155 145 156 172 179 179 175 179 188 192 192 190 184 174 165 156 161 161 169 152 145 146 147 134 120 114 124 116 104 99 88 67 54 45 44 25 28 46 56 55 57 39 30 33 17 7 18
170 174 173 162 157 177 180 192 185 185 190 197 204 201 185 176 169 167 171 168 165 156 153 150 145 138 138 141 104 96 90 100 114 110 87 57 58 39 19 28 40 46 68 56 36 39 37 7 0
172 164 171 177 182 196 201 192 195 186 188 195 200 206 189 179 170 168 170 167 167 165 160 157 155 149 143 141 148 164 159 141 128 126 130 111 77 57 28 28 26 43 66 56 32 45 22 31 358
163 160 180 201 220 223 214 213 199 182 187 191 194 198 192 185 173 170 168 167 168 160 159 159 152 142 138 138 139 165 131 137 120 113 125 123 107 88 61 32 30 36 56 65 52 43 27 33 24
177 188 205 226 240 240 222 216 201 191 191 190 190 191 187 184 176 170 164 161 158 148 152 153 143 135 140 156 161 166 146 140 134 139 140 151 144 119 96 65 43 51 53 56 50 50 50 43 25
210 209 211 207 212 226 214 208 189 191 186 187 185 183 181 176 175 169 163 163 155 154 161 158 150 152 162 179 175 168 171 176 169 165 163 175 148 131 121 91 58 55 59 61 43 38 28 48 40
216 218 230 239 209 197 202 188 144 158 163 174 173 172 174 175 173 171 167 163 159 163 169 169 167 168 173 187 183 174 173 177 164 172 173 166 141 137 128 122 111 90 66 65 58 38 14 34 37
249 233 245 276 259 193 170 144 133 140 151 158 162 167 173 173 170 167 163 161 163 168 174 174 171 171 178 188 182 179 168 164 167 184 163 146 146 140 132 144 132 121 100 64 57 38 45 30 18
248 278 278 268 301 221 170 159 150 148 153 160 162 166 170 169 168 163 160 162 165 168 170 169 173 174 177 179 180 167 167 165 161 163 149 143 141 135 140 141 141 141 134 115 75 31 27 48 35
214 229 251 281 264 247 124 94 114 137 150 154 154 159 167 163 161 159 156 158 159 157 161 168 173 171 172 175 173 164 168 169 157 153 153 158 160 154 156 157 154 143 134 132 119 98 29 358 335
266 257 236 280 293 288 101 77 112 118 119 134 138 151 155 153 153 152 150 153 156 159 164 171 173 168 168 167 163 165 165 166 164 167 177 181 178 170 162 149 146 137 124 125 133 161 142 311 327
Height
1502 1503 1504 1506 1506 1508 1508 1504 1501 1503 1504 1507 1507 1509 1514 1519 1524 1536 1537 1536 1536 1536 1536 1536 1536 1537 1538 1538 1539 1539 1539 1539 1540 1540 1540 1540 1540 1540 1540 1540 1540 1541 1541 1541 1541 1541 1541 1541 1541
1502 1505 1506 1506 1507 1512 1512 1504 1505 1505 1507 1509 1510 1513 1517 1524 1529 1533 1535 1537 1537 1537 1537 1538 1538 1539 1539 1540 1540 1540 1541 1541 1541 1541 1541 1541 1541 1541 1541 1541 1541 1541 1541 1541 1542 1542 1542 1542 1542
1503 1505 1506 1503 1504 1509 1511 1506 1507 1508 1509 1510 1513 1517 1522 1528 1532 1534 1537 1538 1538 1538 1539 1539 1540 1540 1541 1541 1542 1542 1542 1542 1542 1542 1542 1542 1542 1542 1542 1542 1542 1542 1542 1542 1542 1542 1543 1543 1543
1505 1506 1504 1504 1506 1503 1504 1506 1507 1509 1511 1512 1515 1522 1528 1532 1534 1536 1538 1539 1539 1540 1540 1541 1541 1542 1542 1543 1543 1543 1544 1544 1544 1543 1543 1543 1543 1543 1543 1543 1543 1543 1543 1543 1543 1543 1543 1544 1544
1506 1504 1504 1506 1505 1504 1505 1506 1508 1510 1512 1515 1518 1526 1532 1535 1536 1538 1540 1541 1541 1542 1542 1543 1543 1544 1544 1545 1545 1545 1545 1545 1545 1545 1545 1545 1545 1544 1544 1544 1544 1544 1544 1544 1544 1544 1544 1545 1545
1506 1502 1507 1510 1508 1506 1507 1509 1509 1512 1515 1518 1522 1527 1535 1538 1538 1540 1541 1542 1543 1544 1544 1544 1545 1546 1546 1546 1547 1547 1547 1547 1547 1547 1547 1546 1546 1546 1546 1545 1545 1545 1545 1545 1545 1545 1545 1546 1546
1506 1504 1505 1506 1509 1509 1509 1510 1511 1514 1516 1520 1523 1528 1535 1539 1540 1541 1543 1544 1545 1546 1546 1546 1547 1547 1548 1548 1549 1549 1549 1549 1549 1549 1549 1548 1548 1548 1547 1547 1547 1546 1546 1546 1546 1546 1547 1547 1547
1504 1504 1503 1505 1509 1511 1511 1512 1514 1516 1520 1523 1524 1529 1536 1539 1541 1543 1544 1545 1546 1548 1548 1549 1549 1549 1550 1550 1550 1550 1550 1551 1551 1551 1550 1550 1550 1549 1549 1549 1548 1548 1548 1548 1548 1548 1548 1548 1549
1504 1506 1507 1506 1509 1511 1511 1513 1517 1519 1522 1524 1526 1529 1535 1539 1542 1544 1545 1547 1548 1549 1550 1551 1552 1552 1552 1552 1552 1552 1552 1552 1552 1552 1552 1552 1552 1552 1552 1551 1550 1550 1550 1550 1550 1550 1550 1550 1550
1503 1508 1506 1502 1504 1509 1512 1514 1517 1520 1523 1527 1531 1534 1537 1540 1542 1544 1546 1548 1549 1551 1552 1553 1554 1554 1554 1554 1554 1554 1554 1554 1554 1554 1554 1554 1554 1554 1554 1553 1552 1552 1551 1551 1551 1551 1551 1551 1552
1502 1505 1504 1504 1506 1509 1512 1516 1518 1520 1525 1528 1532 1536 1539 1541 1543 1545 1547 1549 1550 1552 1553 1554 1555 1555 1555 1555 1556 1556 1556 1556 1556 1556 1556 1555 1555 1555 1554 1554 1553 1553 1553 1553 1553 1553 1553 1553 1553
1504 1505 1505 1508 1509 1511 1514 1516 1519 1522 1526 1530 1533 1536 1539 1541 1544 1546 1548 1550 1552 1553 1554 1555 1556 1556 1556 1557 1557 1557 1557 1557 1557 1557 1557 1556 1556 1556 1556 1555 1555 1555 1555 1554 1554 1554 1554 1554 1555
1505 1507 1508 1511 1512 1514 1515 1518 1521 1525 1528 1531 1535 1537 1540 1542 1545 1547 1549 1551 1552 1554 1555 1556 1557 1557 1557 1557 1558 1558 1558 1559 1558 1558 1558 1558 1557 1557 1557 1557 1556 1556 1556 1556 1555 1555 1555 1555 1555
1507 1509 1511 1513 1514 1516 1518 1521 1524 1528 1530 1533 1536 1538 1541 1543 1545 1547 1549 1551 1553 1555 1556 1557 1558 1558 1558 1559 1559 1560 1559 1560 1559 1559 1560 1559 1559 1559 1558 1558 1557 1557 1557 1556 1556 1556 1556 1556 1556
1509 1511 1514 1515 1516 1518 1520 1524 1525 1529 1531 1534 1537 1539 1542 1544 1546 1548 1550 1552 1554 1555 1556 1558 1559 1559 1559 1560 1561 1561 1561 1561 1561 1560 1560 1560 1560 1560 1559 1559 1558 1558 1558 1557 1557 1557 1557 1557 1557
1510 1513 1519 1517 1517 1518 1523 1530 1527 1529 1531 1534 1537 1540 1542 1545 1546 1548 1550 1552 1554 1556 1557 1558 1559 1560 1560 1561 1562 1562 1562 1562 1562 1561 1561 1561 1561 1560 1560 1560 1559 1559 1558 1558 1558 1558 1558 1558 1558
1512 1518 1520 1519 1517 1518 1522 1528 1527 1529 1531 1534 1536 1539 1542 1544 1546 1548 1550 1553 1554 1556 1557 1558 1560 1560 1561 1562 1563 1563 1563 1563 1563 1562 1562 1561 1561 1561 1561 1560 1560 1559 1559 1559 1558 1558 1558 1558 1559
1516 1516 1517 1519 1518 1518 1522 1526 1527 1528 1531 1533 1536 1538 1541 1543 1545 1548 1550 1552 1554 1556 1557 1558 1560 1561 1562 1563 1564 1564 1564 1564 1563 1563 1563 1562 1562 1562 1562 1561 1561 1560 1560 1559 1559 1559 1559 1560 1560
1508 1513 1516 1516 1515 1519 1522 1525 1526 1528 1530 1532 1535 1537 1539 1541 1544 1547 1550 1552 1554 1556 1557 1559 1560 1561 1562 1563 1564 1564 1564 1564 1564 1564 1563 1563 1563 1563 1562 1562 1562 1561 1561 1560 1560 1560 1560 1561 1561
1508 1515 1517 1516 1515 1519 1522 1524 1524 1526 1528 1530 1532 1534 1537 1540 1543 1546 1549 1551 1553 1555 1557 1558 1560 1561 1562 1563 1564 1565 1565 1565 1565 1564 1564 1564 1564 1563 1563 1563 1563 1562 1562 1561 1561 1561 1561 1562 1562
1510 1514 1516 1517 1516 1517 1522 1527 1524 1524 1526 1529 1530 1532 1534 1537 1541 1544 1547 1550 1552 1554 1556 1558 1560 1561 1562 1563 1564 1565 1565 1565 1565 1565 1565 1565 1564 1564 1564 1564 1563 1563 1563 1563 1562 1562 1562 1562 1562
1515 1510 1512 1515 1520 1524 1522 1535 1525 1522 1524 1526 1528 1530 1532 1535 1538 1542 1545 1548 1551 1553 1555 1557 1559 1560 1561 1562 1563 1564 1565 1565 1566 1565 1565 1565 1565 1565 1564 1564 1564 1564 1564 1563 1563 1563 1563 1563 1563
1512 1509 1512 1514 1518 1522 1520 1528 1525 1517 1522 1522 1524 1526 1529 1532 1536 1539 1543 1546 1549 1551 1554 1556 1558 1559 1560 1561 1563 1564 1565 1565 1566 1566 1566 1566 1565 1565 1565 1565 1564 1564 1564 1564 1563 1563 1563 1563 1563
1509 1511 1513 1514 1519 1532 1520 1525 1527 1515 1514 1516 1519 1522 1526 1529 1533 1537 1540 1544 1547 1549 1552 1555 1556 1558 1559 1561 1562 1563 1564 1565 1565 1566 1566 1566 1566 1566 1565 1565 1565 1565 1564 1564 1564 1564 1564 1563 1564
1511 1519 1531 1534 1536 1531 1513 1517 1517 1505 1504 1509 1513 1518 1522 1526 1530 1534 1538 1541 1544 1547 1550 1553 1554 1556 1558 1559 1561 1562 1563 1564 1565 1565 1566 1566 1566 1566 1565 1565 1565 1565 1565 1565 1564 1564 1564 1564 1564
1511 1518 1531 1539 1535 1525 1511 1515 1507 1498 1501 1505 1509 1514 1519 1523 1527 1531 1535 1538 1542 1545 1548 1550 1552 1554 1556 1558 1559 1561 1562 1563 1564 1564 1565 1565 1566 1565 1565 1565 1565 1565 1565 1565 1564 1564 1564 1564 1564
1510 1511 1508 1516 1516 1522 1516 1508 1502 1498 1502 1504 1508 1512 1517 1521 1525 1528 1532 1536 1539 1543 1546 1548 1550 1553 1554 1556 1558 1560 1561 1562 1563 1563 1564 1564 1565 1565 1565 1565 1565 1565 1565 1565 1564 1564 1564 1564 1564
1505 1505 1509 1516 1528 1532 1521 1514 1512 1504 1503 1504 1507 1511 1515 1519 1523 1526 1530 1534 1537 1540 1544 1546 1549 1551 1553 1555 1556 1558 1559 1560 1561 1562 1563 1563 1564 1564 1564 1565 1565 1565 1564 1564 1564 1564 1564 1564 1564
1504 1506 1507 1510 1513 1527 1532 1523 1499 1500 1500 1502 1506 1510 1513 1517 1520 1524 1528 1532 1535 1539 1542 1544 1547 1549 1551 1553 1554 1556 1558 1559 1560 1561 1561 1562 1563 1563 1564 1564 1564 1564 1564 1564 1564 1563 1563 1563 1563
1499 1500 1506 1519 1518 1513 1522 1521 1495 1497 1499 1502 1505 1509 1512 1515 1519 1522 1526 1530 1533 1536 1539 1542 1544 1547 1549 1551 1553 1554 1556 1557 1558 1559 1560 1561 1562 1562 1563 1563 1563 1563 1563 1563 1563 1563 1563 1563 1563